Wind_Speed
67 62 60 63 66 65 66 66 63 62 63 63 62 61 58 56 55 53 45 36 32 30 32 34 32 29 29 29 29 30 32 34 34 34 35 36 35 35 36 36 34 33 31 32 33 33 32 32 31 28 28 29 29 27 26 27 28 30 30 30 30 29 29 28 27 28 28 29 29 29 29 29 29 28 28 28 28 28 27 26 25 24 22 21 19 18 17
68 64 60 62 66 65 65 65 64 63 64 64 62 60 58 56 56 52 44 38 33 30 32 33 31 31 32 31 31 32 31 31 31 31 31 33 34 36 37 37 36 34 33 33 32 33 34 33 31 28 29 30 29 27 26 27 28 30 31 31 31 30 30 29 29 30 30 30 30 31 30 29 29 29 28 28 28 27 26 25 24 23 21 20 19 18 17
67 66 63 62 65 65 63 64 65 65 64 64 62 60 58 57 56 50 43 40 35 32 32 34 34 35 35 35 35 32 28 27 28 28 29 31 33 35 36 37 37 35 34 34 33 32 33 33 31 28 28 30 29 27 27 27 28 30 31 31 31 31 30 31 31 31 31 31 31 30 30 30 29 28 28 27 26 25 25 24 23 22 21 20 19 18 17
65 66 65 63 64 64 62 63 66 66 65 63 62 61 59 58 56 49 44 42 38 33 33 36 37 38 38 37 35 31 27 26 26 27 28 29 30 29 31 34 36 37 38 37 35 34 35 35 32 29 29 30 30 28 27 27 28 29 31 31 31 31 31 32 32 31 31 31 31 30 30 29 29 28 27 26 26 25 24 24 23 22 21 20 19 19 18
64 64 66 65 64 63 62 63 66 66 65 64 62 62 60 59 57 51 47 45 40 35 35 38 39 39 38 36 34 31 27 25 25 26 26 26 26 26 27 31 35 39 41 38 37 38 39 37 32 29 30 30 29 27 27 27 27 28 29 30 30 31 31 31 31 30 30 31 30 30 30 30 29 29 27 26 26 25 25 25 24 23 22 21 20 19 18
63 62 65 66 64 62 61 62 65 65 66 65 63 63 61 60 57 53 50 47 41 37 37 39 41 40 37 35 34 32 30 28 26 24 24 25 27 27 28 31 34 38 39 39 41 43 41 36 32 30 31 30 30 28 27 26 26 27 28 29 29 30 30 30 30 29 30 30 29 29 29 29 28 28 26 26 26 26 26 25 24 23 23 22 21 20 19
64 62 64 66 66 63 60 61 63 64 65 65 64 63 62 60 57 53 51 48 42 39 40 41 41 39 36 35 35 34 33 32 29 26 25 26 29 29 29 30 31 33 36 39 42 43 39 36 33 32 32 32 32 29 27 26 26 27 28 28 29 29 30 29 29 29 28 28 27 27 27 27 26 25 25 24 24 24 25 24 23 23 23 23 21 21 21
64 63 64 65 66 63 59 59 62 64 65 65 64 64 63 60 57 54 51 48 44 42 42 42 41 40 38 38 38 37 36 33 31 29 28 27 27 27 26 26 27 29 34 38 40 39 37 35 34 33 33 34 33 30 28 28 28 28 28 29 29 29 29 29 28 27 26 26 25 25 24 24 23 22 22 22 22 22 23 22 22 23 23 23 22 23 23
63 64 63 63 64 63 59 58 60 62 64 66 65 64 63 61 58 54 51 48 46 45 44 43 42 42 41 41 41 39 37 34 32 32 31 28 24 23 22 24 27 30 35 37 37 37 37 35 35 35 35 36 35 34 32 30 30 30 30 30 29 28 27 27 26 25 24 24 23 23 22 21 20 19 19 19 19 20 20 19 20 21 21 22 23 24 24
61 62 63 61 62 63 60 58 60 61 62 65 65 64 64 62 58 55 51 48 48 47 46 45 45 45 45 44 43 40 39 37 34 34 34 31 26 22 22 24 28 33 37 37 36 37 38 37 38 38 38 38 38 37 34 33 33 33 32 31 29 27 26 25 25 25 25 24 23 22 21 19 19 19 19 18 17 17 17 17 18 19 20 21 22 23 23
60 60 62 62 61 62 60 58 60 60 60 64 65 64 63 62 58 54 51 48 48 49 48 48 48 48 47 46 45 42 40 39 36 36 35 32 27 23 22 24 28 33 37 38 37 38 39 39 40 40 39 39 40 39 37 36 35 34 33 32 30 28 27 28 28 27 27 26 24 22 21 20 20 20 19 18 17 16 16 17 17 18 19 19 20 21 22
59 59 61 61 60 60 60 59 61 59 56 60 64 63 63 62 58 54 51 49 49 50 50 50 51 51 50 49 48 45 42 41 40 38 36 32 27 23 22 23 27 32 35 37 38 38 38 39 41 41 41 42 42 41 39 37 36 35 34 33 32 31 31 31 30 29 28 26 25 24 22 22 21 21 20 19 19 18 18 18 19 19 19 19 19 20 21
57 59 59 60 59 59 60 61 63 59 51 53 60 62 62 62 59 54 52 51 51 52 52 52 52 53 53 51 49 46 44 43 41 39 35 31 26 23 22 23 26 31 35 37 38 37 36 38 40 41 42 43 44 42 40 37 36 36 36 35 34 33 33 32 30 29 28 27 27 26 25 24 23 22 22 21 21 20 20 19 19 19 19 20 20 20 21
55 60 59 59 59 60 60 62 64 58 49 49 57 60 61 61 59 56 54 54 54 55 55 55 54 53 53 52 49 47 45 43 41 38 34 31 27 24 23 24 26 31 35 37 36 34 34 36 40 42 43 44 43 41 38 36 35 36 37 36 36 34 34 33 32 31 30 29 29 28 27 27 26 25 24 24 23 23 22 21 20 19 19 20 20 20 21
55 59 60 59 60 61 61 62 64 59 50 49 54 58 60 61 59 57 56 56 57 57 57 57 55 53 53 52 50 48 45 43 41 38 35 32 29 26 26 27 27 31 35 36 35 34 33 35 39 42 43 43 41 39 37 36 36 37 38 38 38 38 36 35 34 33 32 32 32 31 30 29 28 27 27 26 26 25 24 23 22 21 21 21 20 20 20
55 58 59 59 60 62 61 62 64 59 51 48 52 56 60 61 60 59 59 59 59 59 59 58 56 54 53 53 51 49 47 45 42 39 37 34 31 29 30 29 29 30 33 35 34 35 35 37 40 42 43 42 40 38 38 38 39 41 42 42 42 40 39 38 38 37 36 35 35 33 32 31 30 30 29 29 29 28 27 26 25 24 24 24 23 21 20
54 56 56 58 61 62 62 63 65 59 52 49 51 55 59 62 62 62 62 61 61 61 60 60 58 55 54 52 52 51 49 47 44 41 38 36 33 32 32 33 32 31 31 32 32 33 35 37 40 43 43 43 42 41 41 41 41 43 43 43 44 44 43 42 42 41 40 39 37 35 34 33 33 32 33 32 32 31 30 29 28 28 28 28 27 25 23
53 54 55 59 63 63 63 66 65 59 53 51 51 54 59 62 65 65 63 62 62 62 61 61 60 58 55 52 52 51 50 48 45 42 39 37 35 34 34 35 36 34 32 30 29 30 32 34 38 41 42 43 44 44 44 44 44 44 43 42 43 44 44 43 43 43 42 40 39 38 38 37 36 36 36 35 35 34 33 32 31 31 31 31 31 30 28
52 55 55 60 65 64 65 68 65 56 52 53 52 53 58 62 66 67 65 63 63 63 62 62 61 59 57 54 52 51 50 48 44 41 40 38 35 35 36 36 37 36 34 33 31 30 30 31 34 37 41 43 44 45 46 46 45 45 45 44 43 42 42 42 41 41 40 39 40 40 41 40 39 39 39 38 37 37 36 35 35 35 35 34 34 33 32
50 56 55 60 66 65 66 69 65 55 52 54 54 54 58 61 66 69 66 64 64 63 62 62 62 60 58 56 54 52 50 48 45 42 40 40 38 38 37 36 36 37 36 35 34 32 32 32 32 34 38 40 43 44 45 46 47 48 48 48 46 44 43 44 43 43 43 43 43 43 43 42 42 42 41 40 40 40 40 39 39 39 38 37 37 36 36
47 57 56 59 67 68 67 70 68 59 52 51 51 56 60 63 67 70 69 65 65 65 63 62 62 61 59 57 55 53 50 48 46 44 44 43 42 41 40 38 37 37 37 36 35 35 34 33 33 33 34 37 40 43 45 46 47 48 49 49 48 46 46 46 46 46 47 47 47 47 46 45 45 45 44 43 43 43 43 43 43 42 42 41 40 40 39
44 57 57 59 67 70 68 70 71 66 55 45 42 51 62 65 65 67 68 68 68 66 65 64 63 62 61 59 56 54 52 50 49 48 48 48 46 43 41 41 40 40 39 38 38 37 36 34 32 31 32 33 35 38 41 41 43 44 46 47 48 48 48 48 48 48 49 49 49 49 48 47 47 47 47 46 46 46 46 47 47 46 46 45 44 44 43
41 55 58 59 66 70 70 71 72 71 63 50 40 42 52 60 63 63 63 67 70 67 65 66 65 64 63 61 58 55 53 53 53 53 52 50 48 45 43 42 41 41 41 40 39 39 38 36 34 32 32 32 32 34 35 36 37 39 41 44 46 47 48 48 48 49 49 50 50 50 50 49 49 49 49 49 49 50 50 50 49 48 47 46 46 46 45
39 53 57 59 63 67 69 72 72 71 69 63 53 42 37 43 56 65 66 66 70 70 67 67 67 66 64 62 59 57 56 55 55 56 55 51 48 46 45 43 42 42 41 41 40 40 39 38 37 36 35 34 34 33 33 33 33 34 36 39 41 43 44 45 46 48 49 50 50 50 51 50 50 50 50 50 50 49 49 48 47 46 45 45 46 46 45
38 51 56 58 60 62 65 71 73 71 70 69 65 54 39 32 41 60 70 70 70 70 69 68 68 68 66 64 61 59 59 59 57 56 55 53 50 48 47 45 44 43 42 41 41 40 39 39 39 38 37 36 36 35 34 33 33 33 33 35 36 37 39 41 42 44 46 48 49 49 50 49 49 48 47 47 46 44 43 42 41 41 41 41 42 42 41
34 48 55 58 59 59 62 66 70 72 72 70 67 63 54 42 35 42 59 70 71 68 66 68 70 70 67 66 65 64 62 63 61 58 56 53 51 50 49 47 46 45 43 42 42 41 40 39 38 38 37 37 37 37 36 35 34 33 32 32 33 34 35 36 37 38 40 42 44 45 46 46 45 44 42 41 40 39 38 38 38 37 37 37 37 37 36
26 39 50 55 56 59 62 64 67 71 72 72 70 66 63 59 50 39 43 57 68 70 68 66 70 73 69 66 67 67 66 65 63 60 58 55 52 51 51 50 48 47 45 43 42 42 41 40 39 37 36 36 36 37 37 36 35 34 33 32 32 33 33 34 34 34 35 36 37 39 39 40 39 38 37 36 36 36 36 36 35 35 35 34 34 34 34
22 30 41 46 48 53 57 60 64 69 71 71 72 70 66 65 63 52 42 42 52 65 71 69 69 73 73 69 67 67 67 67 65 62 59 57 55 54 53 52 50 49 47 46 44 43 43 42 40 38 37 36 35 35 36 37 35 33 33 33 33 33 34 34 34 34 34 34 35 35 35 35 36 35 35 35 35 35 35 35 35 34 34 33 33 33 33
20 23 31 37 41 45 49 50 56 65 70 70 72 73 70 67 66 62 54 45 40 47 61 68 71 74 75 73 71 69 68 68 67 64 61 59 57 56 55 54 53 51 48 47 46 45 45 44 42 40 39 37 35 34 36 36 34 32 31 32 33 34 35 35 35 35 35 35 35 35 35 35 35 35 35 35 35 35 36 36 36 35 34 34 33 33 34
22 21 25 31 36 41 44 43 46 55 63 67 70 73 73 72 69 66 64 58 48 42 44 53 65 74 77 76 73 71 70 69 68 67 64 62 60 59 57 56 55 54 52 50 48 47 47 47 46 43 40 37 35 35 36 35 32 31 31 31 31 33 35 36 36 36 36 36 37 37 37 37 37 37 36 36 36 37 37 37 37 37 36 35 34 34 34
24 23 23 27 33 38 41 40 42 47 53 58 64 70 74 75 74 71 68 65 61 56 50 46 52 63 72 77 77 74 71 70 69 68 67 64 62 61 60 59 57 56 55 53 51 49 49 49 48 46 42 38 36 36 37 35 32 31 31 30 30 31 34 37 38 38 38 38 38 38 38 38 38 38 38 38 38 38 38 39 38 38 37 37 36 37 37
24 26 26 27 29 34 37 38 40 44 47 50 55 63 70 74 76 75 73 69 66 66 64 60 56 54 58 67 74 75 74 73 71 70 69 67 65 64 63 61 59 57 56 54 52 51 51 51 50 48 46 42 39 39 39 38 36 34 32 31 30 31 34 36 39 39 39 39 39 39 39 39 39 39 39 39 40 40 41 41 42 41 40 39 39 39 39
27 29 31 31 31 33 36 37 39 42 46 47 49 53 61 68 72 75 75 73 69 67 67 67 67 63 56 54 58 64 70 73 74 74 73 71 68 68 67 64 61 60 58 57 56 55 55 54 54 53 50 47 43 42 43 43 42 40 37 35 33 32 33 36 38 40 40 41 40 40 40 40 40 40 40 41 42 42 41 40 40 40 41 41 41 41 41
28 31 34 36 36 37 38 40 41 43 46 48 49 50 54 60 65 70 73 74 71 68 66 66 68 69 66 60 54 52 54 56 59 67 74 74 70 69 69 67 65 64 63 61 60 59 59 59 57 57 56 53 48 45 46 46 46 44 42 40 36 34 33 35 38 40 41 42 41 41 41 41 41 42 42 43 44 45 43 39 37 35 36 38 40 41 42
23 30 34 36 38 40 41 43 45 47 49 51 52 53 54 57 60 64 69 71 70 67 65 65 65 66 68 69 65 58 52 47 44 49 60 69 73 74 73 71 69 68 66 66 64 63 63 62 61 60 59 57 53 49 47 46 46 45 44 42 40 38 36 36 39 41 42 43 43 43 42 42 42 43 43 44 45 46 46 44 42 41 40 41 41 43 45
15 21 26 30 33 37 41 45 48 51 53 56 58 59 58 58 59 61 64 68 69 68 65 64 64 65 67 69 69 66 63 60 53 46 46 53 62 66 67 69 72 72 69 68 68 66 65 65 64 63 62 60 57 54 51 48 47 46 45 45 44 42 41 40 40 41 43 43 44 44 44 44 44 44 44 45 46 47 48 47 46 46 47 46 45 45 47
10 13 17 21 25 31 37 43 48 52 54 57 61 64 65 65 64 64 64 66 67 66 64 62 62 63 65 67 69 69 69 68 66 61 57 53 50 47 47 53 63 71 73 71 69 67 67 66 66 65 64 62 61 59 56 52 49 48 47 46 45 45 44 42 41 41 42 43 44 44 44 45 45 45 46 47 47 48 49 49 49 49 50 50 49 49 49
11 13 16 20 24 30 36 41 45 49 52 54 57 62 67 69 69 68 67 68 68 67 65 62 60 60 62 65 67 67 68 69 69 69 69 67 62 55 48 44 48 58 68 72 70 67 66 66 66 66 65 64 63 62 58 53 50 49 48 47 45 45 44 42 41 41 42 42 42 43 44 45 45 46 46 47 48 49 50 51 51 51 52 52 52 52 52
10 12 14 18 22 26 29 31 33 35 40 44 48 52 59 65 68 69 68 69 69 69 68 67 65 61 60 61 63 65 66 67 68 69 70 70 70 69 65 56 48 48 56 64 68 68 66 65 64 65 65 65 65 63 59 54 51 48 46 45 45 44 43 42 41 41 41 40 41 42 43 44 45 46 46 47 48 49 51 52 53 53 53 54 54 54 55
12 12 13 14 16 18 20 22 23 23 24 27 32 38 44 52 59 63 64 65 66 68 69 70 71 69 65 63 63 63 64 65 67 68 69 68 68 69 71 68 62 57 54 55 59 65 67 67 66 66 64 63 63 62 59 56 53 50 48 46 45 43 41 41 41 41 41 41 41 43 44 46 47 47 48 49 50 51 52 53 54 55 56 56 57 57 58
13 14 14 13 13 14 15 17 18 17 15 15 18 23 28 35 44 50 53 54 56 60 63 66 70 72 72 70 68 67 67 67 67 68 69 69 68 67 68 68 68 68 65 60 56 57 59 61 62 63 62 60 60 60 59 57 56 54 51 47 44 42 41 41 40 40 40 41 42 44 46 48 49 51 52 53 54 55 56 56 56 58 59 60 60 60 61
16 16 16 14 13 13 13 12 12 11 10 9 10 12 16 21 29 36 41 44 45 47 51 56 61 65 69 70 71 71 71 71 71 71 70 70 69 69 68 68 69 70 71 69 65 60 56 54 53 54 54 53 52 52 54 56 56 55 53 49 45 43 43 43 43 44 45 47 49 51 52 53 54 56 57 59 59 60 61 60 60 61 62 63 63 64 64
17 18 18 17 16 15 14 12 10 8 7 6 7 8 10 14 18 23 29 33 36 37 40 45 51 56 60 64 67 70 72 73 74 75 74 73 72 71 70 70 70 70 71 71 70 68 65 62 59 57 56 55 52 50 50 51 53 54 54 54 53 51 49 50 51 52 52 53 55 57 58 58 57 58 59 61 62 63 63 64 63 63 63 64 65 66 67
14 15 16 16 17 18 18 16 13 10 8 8 8 7 7 9 12 17 22 27 31 33 35 38 43 48 53 58 62 66 69 72 74 76 77 76 75 73 72 71 71 71 71 72 72 71 70 68 66 65 63 62 61 59 57 56 55 55 56 57 57 56 55 55 55 55 56 57 58 59 60 60 60 59 59 61 62 63 64 65 65 64 63 62 62 63 64
12 12 12 13 14 16 18 18 17 16 14 14 12 10 7 6 7 10 14 20 26 31 34 37 40 44 47 51 55 59 64 68 72 75 78 78 77 76 74 73 73 72 72 72 72 71 70 68 66 65 64 63 63 62 62 62 61 60 60 60 60 60 60 59 59 59 60 61 61 61 61 62 62 62 62 62 63 64 64 65 64 64 63 61 60 61 61
13 12 11 11 13 14 15 15 16 16 17 16 15 14 12 10 9 10 12 15 20 26 31 35 38 41 42 43 43 45 49 55 62 68 73 76 79 79 77 76 74 73 72 72 71 70 69 66 63 61 60 60 61 62 62 63 63 64 63 63 63 63 63 62 62 61 62 62 62 62 62 62 62 63 64 64 64 65 66 66 65 63 61 58 56 56 57
14 13 12 11 12 14 14 14 14 14 15 17 17 17 16 15 15 16 16 14 13 16 21 25 27 30 31 31 30 30 32 37 45 53 60 67 73 78 78 77 76 74 73 71 70 69 67 65 62 60 58 58 59 59 60 61 62 63 64 64 64 64 63 62 61 61 61 61 61 61 61 62 62 63 64 65 64 63 64 65 64 61 59 58 56 55 55
15 14 12 11 11 12 13 13 13 13 14 15 16 18 19 19 19 20 20 17 13 13 15 16 17 19 21 23 25 28 29 29 32 37 44 51 60 68 72 74 75 74 73 72 72 70 68 66 63 61 59 59 59 59 60 60 61 62 62 63 63 63 62 61 60 60 60 60 61 62 63 63 63 63 64 64 61 58 57 59 59 57 55 54 53 54 56
16 15 14 12 12 12 12 13 13 13 13 13 14 15 16 19 20 21 21 20 18 18 19 19 19 20 21 23 26 30 32 30 29 30 32 36 43 51 58 64 68 70 72 72 73 73 72 71 69 67 66 65 64 63 63 63 62 62 62 62 62 62 62 61 61 61 61 61 62 63 64 65 65 64 63 61 59 56 56 59 60 59 58 58 58 60 62
17 17 16 15 14 13 13 13 13 12 12 13 13 12 13 15 17 18 19 20 20 21 23 24 25 26 30 33 34 35 36 35 32 30 30 30 31 34 39 45 51 56 61 65 68 70 71 71 70 70 70 69 68 67 66 66 64 64 63 63 63 63 62 62 62 63 63 64 64 64 64 65 64 63 61 59 56 54 54 56 59 61 63 64 65 67 68
19 18 17 16 16 15 14 15 14 13 12 12 12 12 12 13 14 14 16 17 18 21 25 27 27 28 32 36 38 38 38 37 35 33 31 31 31 31 31 32 34 38 42 47 52 57 59 60 60 61 61 62 64 64 65 65 64 64 63 63 62 62 62 62 62 62 62 61 60 60 59 59 57 56 55 55 54 53 51 52 53 56 58 59 62 64 65
22 21 19 18 17 17 16 16 15 15 14 12 12 12 12 12 13 13 14 14 15 16 19 23 25 26 28 32 34 35 36 38 40 39 36 34 34 34 33 32 32 32 33 34 36 39 42 45 46 47 49 51 53 56 59 60 60 60 61 61 61 60 60 59 58 56 55 53 52 52 52 52 51 51 52 53 53 53 51 50 50 50 50 51 52 54 55
Wind_Direction
208 206 204 205 208 207 206 208 208 209 211 213 216 217 219 221 221 221 216 200 193 197 196 196 198 197 199 203 206 211 211 210 212 213 212 210 206 207 209 211 215 214 209 210 211 211 213 216 217 213 206 202 201 203 208 209 206 203 200 198 197 198 199 198 197 197 198 199 201 202 204 205 206 207 208 209 210 212 214 215 217 217 217 219 223 228 234
210 207 205 204 207 207 206 207 208 209 211 212 214 216 217 220 221 221 215 202 193 191 191 190 189 190 193 195 201 208 208 208 211 212 210 207 206 207 207 208 211 212 209 207 209 211 214 215 216 214 207 205 204 205 209 210 207 203 201 198 197 196 196 197 199 201 201 201 202 203 204 205 207 209 210 211 213 214 216 217 219 219 218 221 225 230 234
213 209 207 205 206 207 205 206 208 209 211 212 213 215 216 219 221 219 214 204 192 187 188 187 186 190 191 194 201 205 204 203 206 208 208 206 206 207 207 207 210 214 213 208 206 213 218 216 215 213 209 207 207 207 209 211 208 204 201 200 198 197 197 199 201 202 203 204 204 205 205 206 208 211 213 215 216 217 218 219 220 220 221 224 227 231 234
216 211 209 207 206 206 205 206 209 210 210 210 212 214 215 218 219 217 213 205 192 187 191 188 187 191 193 196 200 200 197 196 198 202 204 205 207 208 209 209 209 215 218 212 210 219 224 219 214 211 208 207 208 208 209 211 208 204 202 201 200 199 199 202 203 204 204 205 205 205 205 206 209 212 215 216 218 219 220 221 221 221 223 227 230 232 236
217 213 211 207 206 206 205 207 209 210 210 210 211 213 214 216 218 214 211 206 194 190 194 190 189 193 194 195 197 196 193 192 194 199 203 206 209 210 213 214 213 216 219 218 218 225 226 219 213 209 207 208 209 208 209 210 207 203 202 201 202 202 203 204 205 205 205 205 205 206 206 208 210 213 215 216 218 219 220 222 222 222 225 228 231 234 237
217 214 212 208 206 206 205 207 208 210 210 210 210 212 213 215 217 213 211 207 197 193 195 192 191 193 191 190 192 193 193 193 194 199 205 207 206 205 208 214 216 217 218 219 220 222 221 215 210 207 205 205 207 206 205 206 204 200 200 200 201 202 204 205 205 206 207 207 207 208 208 210 212 213 215 216 217 219 221 223 224 225 228 230 233 235 238
217 215 213 209 206 205 204 206 208 209 210 210 210 211 213 214 216 213 211 208 200 195 196 194 193 193 190 188 190 190 191 193 196 199 202 203 201 199 200 205 212 215 214 214 215 215 214 210 206 204 202 203 204 202 200 201 198 196 196 196 197 199 201 202 203 204 205 206 208 209 210 211 212 213 214 216 218 220 222 224 226 228 231 233 235 238 239
217 214 213 210 206 204 204 206 208 209 210 210 209 211 212 213 214 213 212 208 200 196 197 196 194 192 190 187 188 187 188 193 198 200 198 196 194 193 194 199 205 209 209 211 213 212 210 207 204 202 201 202 203 199 197 198 194 191 191 191 192 195 197 198 200 201 202 203 204 206 208 209 209 210 212 215 218 221 223 225 227 230 233 235 237 238 239
218 213 212 210 206 204 204 206 208 210 211 210 209 210 212 212 212 213 211 208 202 198 198 198 195 192 189 187 187 188 189 194 201 202 199 196 192 190 194 200 201 202 206 210 212 212 210 205 203 203 201 202 202 198 196 195 191 188 188 187 189 192 194 195 196 195 195 195 196 199 200 201 203 204 207 211 215 219 222 224 226 229 232 234 235 237 238
218 213 210 210 207 204 203 205 207 210 213 212 210 210 212 212 211 211 210 207 203 200 198 198 195 191 190 189 189 191 193 197 202 205 203 199 196 196 201 205 203 202 206 210 211 212 210 204 202 203 201 202 203 200 197 194 191 189 187 186 186 189 190 191 191 190 190 190 192 193 194 194 196 198 201 204 209 213 215 219 223 226 229 232 234 236 237
217 212 209 209 207 202 201 205 206 209 214 216 212 211 212 212 211 210 208 205 203 200 198 198 196 193 192 193 192 194 196 198 202 207 206 202 200 202 206 209 206 205 208 210 212 213 210 204 202 203 202 202 204 202 200 196 193 190 187 186 187 189 192 193 193 191 191 192 193 194 194 195 197 199 201 203 207 210 213 217 223 227 231 235 238 239 240
214 212 208 209 207 201 200 204 206 208 214 218 215 213 213 212 211 210 207 205 202 198 197 197 197 196 196 197 197 198 201 202 203 206 206 203 201 203 208 211 209 208 209 211 214 216 213 206 204 203 203 204 205 205 203 200 194 188 186 187 190 192 195 196 196 195 195 195 197 197 197 200 202 204 207 209 212 216 219 223 228 233 237 240 243 246 246
211 211 208 207 206 200 200 204 206 207 214 219 218 216 214 212 212 210 207 205 203 199 197 197 198 199 200 201 201 202 205 206 206 207 207 203 201 204 209 213 211 209 210 211 214 216 214 209 206 205 206 207 208 208 207 203 195 190 189 191 193 195 198 199 199 199 199 200 202 203 202 204 207 209 213 216 218 221 224 228 232 237 242 245 247 250 251
208 210 207 206 204 199 200 204 205 206 213 218 218 217 215 213 212 210 207 206 204 200 198 197 199 202 204 204 202 203 206 208 209 211 210 205 203 206 211 213 211 207 209 212 213 214 213 209 206 207 209 210 210 211 209 205 199 196 195 195 197 198 201 202 202 203 205 208 210 209 209 210 212 214 218 222 224 226 228 232 235 239 245 249 251 253 255
206 209 206 204 202 199 201 204 203 205 212 216 215 215 215 213 212 210 208 207 205 202 200 199 200 202 205 205 204 205 208 210 211 213 213 209 207 209 212 214 211 207 208 211 212 212 211 209 206 207 210 212 212 212 210 208 205 204 203 202 202 203 203 205 206 208 211 214 215 214 215 216 215 217 221 225 228 230 232 234 237 240 245 249 251 253 256
205 208 205 203 200 199 201 202 202 206 211 214 214 213 213 212 211 210 210 208 207 205 203 200 200 202 204 206 206 206 209 211 212 213 215 215 213 211 212 213 211 208 208 210 210 210 210 208 207 208 209 211 212 212 212 212 212 212 210 206 205 206 206 207 210 214 215 217 218 219 222 223 221 221 224 227 231 233 235 236 237 240 245 248 250 250 252
204 207 204 201 200 199 200 200 201 206 208 208 211 212 211 210 210 211 211 210 209 208 205 202 201 202 204 205 206 207 209 211 212 213 215 216 214 212 211 213 211 208 207 208 208 208 210 210 210 210 210 210 211 213 215 216 218 221 220 213 208 208 209 209 212 214 215 217 220 224 226 228 227 228 229 231 233 234 237 238 239 240 243 246 248 249 249
202 205 202 200 200 200 199 198 201 206 207 205 205 207 207 207 209 211 212 211 210 209 207 204 202 202 203 204 205 206 208 209 210 210 211 213 212 209 209 211 211 209 207 207 207 207 208 211 213 213 214 214 214 215 217 218 221 227 230 226 220 216 215 215 216 216 216 219 223 226 228 228 229 231 233 235 237 238 239 241 241 242 243 244 247 248 248
200 203 201 200 200 200 199 199 201 205 207 205 201 200 202 205 208 210 212 211 211 210 208 205 203 203 203 204 205 205 205 207 207 205 206 209 208 205 206 209 210 209 207 207 210 210 209 209 211 213 215 217 218 220 221 222 223 227 230 233 233 229 224 223 225 226 224 225 227 229 230 230 230 231 234 237 240 241 242 243 244 244 245 246 247 248 249
196 201 200 199 201 201 199 200 203 205 206 206 203 199 200 205 207 209 210 211 211 210 208 206 204 203 204 205 206 205 204 205 205 203 204 207 206 203 202 204 206 208 208 208 210 212 212 211 211 212 214 216 218 221 223 225 226 227 229 232 235 234 231 229 230 230 229 228 228 229 231 232 232 233 235 237 241 242 244 245 246 247 248 249 250 251 251
193 199 201 200 201 202 200 200 204 205 202 202 204 201 201 206 209 207 207 209 211 210 208 206 205 204 204 205 206 207 205 204 204 203 203 206 208 206 203 203 204 205 207 209 210 211 211 210 212 213 215 216 217 219 222 225 227 229 230 232 234 235 235 233 231 230 230 230 230 230 231 233 234 234 234 237 240 242 243 244 246 248 249 250 251 252 252
192 197 201 201 201 203 202 201 206 209 203 200 203 202 202 207 212 209 205 207 210 210 207 206 205 205 204 205 206 206 206 205 204 204 205 207 209 209 206 204 204 204 206 208 210 210 209 208 209 211 213 215 216 217 221 225 227 228 230 232 234 235 235 235 233 233 233 233 232 232 232 233 234 234 235 237 239 241 243 244 246 248 250 251 252 253 253
193 196 201 202 202 205 206 204 207 212 212 208 207 204 203 207 211 211 208 209 210 210 207 206 206 205 204 205 206 206 206 206 205 206 208 209 210 211 209 207 206 206 206 207 208 207 206 206 207 208 210 211 212 214 217 220 223 225 228 230 233 234 235 235 234 234 235 235 234 234 234 234 235 236 237 239 241 243 245 247 249 251 253 254 255 256 257
194 197 202 203 205 209 210 208 209 214 217 217 216 213 209 209 209 210 212 212 210 209 207 206 206 206 205 205 207 206 206 207 208 209 211 212 211 212 212 211 210 210 209 208 207 206 206 206 208 209 210 211 212 214 216 218 220 223 226 228 230 232 233 234 234 235 235 236 236 237 237 238 239 240 241 243 245 247 249 251 252 254 255 255 256 257 259
196 199 203 205 209 213 214 212 213 217 220 221 221 218 215 212 207 208 211 213 211 208 207 206 206 207 207 207 207 207 207 208 210 211 213 214 214 213 214 214 214 214 213 212 210 209 210 211 212 212 213 215 216 217 218 220 222 224 225 227 228 229 230 232 233 234 236 238 239 240 241 242 244 245 247 248 249 250 250 250 251 251 252 252 254 255 258
197 201 205 208 213 217 218 217 218 220 221 223 225 223 219 219 217 209 209 211 210 207 206 207 207 207 209 209 208 208 208 209 211 213 214 215 214 214 215 216 216 216 217 216 214 214 215 217 218 219 219 220 221 221 222 224 226 227 228 228 228 228 228 229 231 233 235 237 239 241 243 244 245 246 247 247 247 246 247 248 249 250 251 252 253 255 257
200 202 206 210 215 221 223 222 221 222 222 223 226 228 225 225 229 224 213 211 210 206 205 207 208 208 210 212 211 210 210 211 212 215 216 216 215 214 215 216 216 217 219 220 219 218 219 220 222 223 225 226 226 226 227 228 228 230 231 231 231 231 231 230 230 231 233 234 235 237 238 240 241 241 241 242 243 244 245 247 248 250 251 252 254 256 258
207 204 206 210 216 222 226 227 225 224 225 225 226 228 228 228 232 232 223 216 211 204 201 204 208 209 211 213 213 212 212 212 214 216 217 216 215 215 215 216 217 218 220 222 223 223 223 224 226 227 228 230 231 230 228 227 228 231 234 235 235 234 235 235 234 233 233 234 234 235 235 236 237 239 240 243 244 245 246 248 249 251 253 254 257 259 260
218 211 208 210 215 220 227 231 231 228 228 228 227 228 229 229 232 234 232 228 220 206 199 201 205 209 211 213 214 215 214 214 215 217 217 216 215 215 215 216 218 220 221 222 225 226 227 228 230 231 230 231 232 230 228 226 227 231 236 239 240 239 238 238 238 237 237 236 236 237 237 239 240 242 244 246 247 247 248 250 251 252 253 255 256 258 259
228 221 214 213 215 219 225 232 235 234 233 232 230 230 230 231 232 235 236 234 231 223 210 205 206 208 210 212 214 214 215 215 215 215 216 216 216 216 216 217 218 219 221 223 226 228 229 231 232 233 232 232 232 230 227 226 228 232 236 240 244 245 243 241 240 239 240 239 239 239 239 240 242 244 246 247 248 249 250 251 252 253 253 254 255 257 258
233 231 226 220 218 220 224 230 235 238 239 238 235 233 233 233 234 236 238 238 236 234 232 229 221 213 210 212 214 214 214 213 213 212 214 216 216 216 216 218 218 219 221 224 227 228 229 230 232 233 233 233 232 229 227 227 230 234 238 242 247 250 248 244 241 240 240 241 241 241 242 242 243 244 246 248 249 250 251 251 252 252 253 254 255 257 258
233 235 235 232 227 226 228 231 235 239 242 243 241 238 236 236 236 237 239 241 241 240 240 242 240 231 219 213 213 215 216 215 212 210 211 213 216 216 216 216 217 219 220 223 227 229 230 231 233 234 234 234 233 232 230 230 232 237 243 247 252 256 253 248 244 242 241 241 242 242 243 244 245 245 247 249 250 251 251 252 252 253 253 254 255 256 258
235 236 237 238 237 235 235 236 237 239 242 245 245 243 240 240 240 240 241 243 245 245 245 245 247 247 239 224 215 213 213 213 212 210 209 211 214 216 216 216 217 218 221 224 227 229 231 233 234 236 236 236 235 236 236 237 238 242 247 250 253 258 257 252 247 244 243 242 243 243 244 244 246 247 248 249 251 252 253 254 254 254 254 255 255 256 258
235 238 240 242 242 242 242 242 241 241 243 246 248 248 246 244 243 243 243 244 246 248 248 247 248 250 249 243 234 221 211 207 207 208 208 212 215 216 215 215 217 219 222 225 228 229 231 232 234 236 237 238 238 238 239 241 242 245 248 249 252 256 258 254 249 246 244 243 243 244 245 246 247 248 249 250 251 254 256 257 257 257 257 258 259 259 261
232 237 240 242 244 245 246 247 247 246 245 246 248 249 249 248 247 246 245 246 248 249 249 248 248 250 251 251 248 238 226 220 218 211 208 211 216 216 215 215 216 218 221 225 228 229 231 232 234 236 238 240 241 240 240 241 242 244 246 247 250 255 260 258 252 248 246 245 244 245 246 247 248 249 250 251 253 255 257 258 259 259 260 262 262 261 262
235 237 238 241 244 245 247 249 252 252 250 248 249 249 249 249 248 248 247 247 248 250 251 250 250 250 250 251 252 249 243 239 236 229 220 216 214 214 215 217 218 220 222 225 227 228 229 231 234 235 237 240 243 243 243 242 241 242 245 246 248 255 261 260 253 248 247 246 246 246 247 248 249 250 251 252 254 256 258 259 260 259 260 262 263 262 262
266 259 254 252 250 249 250 251 251 251 250 249 248 248 249 249 248 248 248 248 249 250 251 251 251 251 251 251 251 252 251 250 247 245 243 237 227 219 217 217 218 220 224 226 226 227 228 230 233 235 236 240 244 245 245 243 243 244 245 246 251 258 261 256 250 248 248 247 246 247 249 250 251 252 253 254 255 256 257 259 260 260 261 262 264 264 264
279 270 264 258 253 251 252 253 253 252 251 249 247 246 246 247 248 247 247 247 248 249 250 250 250 250 251 252 252 252 252 254 254 253 252 252 248 243 237 228 221 221 223 224 225 226 226 228 231 234 237 241 244 246 245 244 245 246 247 249 255 260 256 247 245 248 249 248 249 250 251 252 253 254 255 256 257 257 258 259 260 261 262 263 264 265 265
261 255 252 251 249 249 252 255 257 257 255 253 250 247 244 243 244 245 245 245 245 247 248 249 250 249 248 250 252 253 253 253 254 255 256 257 256 254 251 244 236 229 226 224 224 225 226 227 231 234 238 241 244 246 245 245 246 248 249 252 257 257 248 241 241 246 248 250 252 254 254 254 254 255 256 257 258 259 260 261 261 262 263 264 265 266 266
246 243 244 247 250 252 252 250 250 251 252 250 248 246 243 241 241 242 243 244 244 244 245 247 249 250 249 248 249 251 252 253 253 254 256 256 257 258 256 252 247 243 239 232 226 226 228 230 233 236 239 241 244 245 245 246 247 248 250 252 255 252 245 240 241 245 247 250 252 254 255 255 255 255 256 258 258 259 260 262 263 264 264 264 265 266 266
259 252 249 248 253 258 257 248 239 236 238 240 241 241 241 239 239 239 241 242 242 243 243 244 245 248 249 249 248 248 250 251 252 253 254 255 255 257 258 257 254 251 250 246 238 232 231 232 234 236 239 241 243 245 247 248 249 249 250 251 253 250 244 240 240 243 246 249 252 255 257 258 258 259 260 260 260 261 261 261 263 264 265 266 266 267 267
279 273 268 265 264 264 263 256 243 233 229 234 241 242 242 240 238 238 239 240 241 241 242 243 244 246 248 250 250 249 248 249 250 251 253 254 254 255 257 258 258 257 257 255 251 246 241 238 238 239 241 242 244 246 247 249 249 249 248 248 249 248 245 242 243 248 254 258 262 265 267 267 266 265 263 263 264 264 264 263 263 264 265 266 267 267 268
284 285 285 285 283 279 277 274 262 245 238 249 261 258 251 246 243 241 242 243 244 244 243 243 244 246 248 250 251 251 250 249 249 250 251 252 253 255 256 258 259 259 260 260 258 255 252 249 247 247 247 248 249 249 249 248 247 247 247 248 250 252 252 250 250 255 261 267 272 274 274 273 271 268 266 265 265 265 265 266 265 265 265 266 266 266 266
285 287 291 292 288 286 288 289 284 273 272 281 282 270 249 240 243 246 247 248 249 250 250 248 247 248 249 251 252 253 253 252 251 250 251 251 251 253 255 257 258 259 260 260 260 260 258 257 256 255 254 254 254 254 254 253 251 251 252 254 256 259 261 260 258 260 265 272 276 277 276 275 274 271 269 267 266 266 266 266 267 267 267 267 266 266 266
288 289 291 289 284 282 284 289 289 286 285 287 289 287 280 263 253 254 257 256 255 255 254 253 251 250 250 251 252 252 253 252 251 250 250 251 251 251 252 254 256 258 259 259 259 259 260 260 260 260 259 258 258 258 258 258 258 259 260 261 262 264 266 267 268 269 272 275 277 277 276 276 275 274 272 270 268 267 267 267 267 268 268 267 268 269 270
287 289 290 290 285 278 275 277 279 280 280 282 284 285 284 283 285 288 285 275 264 257 255 255 255 254 252 252 252 250 250 251 251 250 249 249 249 250 250 251 252 254 256 257 257 257 258 259 259 259 258 257 258 258 259 260 261 262 262 263 264 266 268 270 272 273 274 275 275 275 274 273 273 273 272 271 270 268 268 267 267 267 266 266 266 267 268
282 285 288 290 289 285 280 276 272 270 270 271 272 272 271 270 277 288 291 285 268 256 253 253 254 255 252 248 241 235 234 240 247 250 250 249 249 249 249 249 249 249 250 251 252 254 255 256 256 255 254 254 255 256 258 259 260 261 262 263 265 267 268 270 270 271 271 271 272 272 271 271 270 269 269 270 271 272 273 272 271 270 269 268 267 267 269
277 278 280 282 284 285 285 283 276 269 266 263 261 260 258 257 263 274 279 274 263 260 260 257 255 252 244 231 222 220 221 228 237 242 245 248 250 249 249 248 248 247 247 247 248 249 250 251 252 252 253 253 254 255 257 259 260 261 262 264 265 266 268 268 268 268 268 268 269 269 270 270 269 268 269 269 270 270 269 267 267 268 269 269 269 270 274
274 273 272 272 273 275 278 279 276 272 269 265 258 252 251 251 256 263 265 260 254 256 257 253 249 243 231 221 219 223 226 228 229 232 237 243 249 250 251 250 249 248 247 246 247 247 248 249 249 250 251 253 254 256 258 259 260 262 262 263 265 266 266 267 267 267 267 267 267 267 267 267 268 268 268 268 267 265 262 260 260 262 265 267 269 271 274
272 270 269 268 268 269 271 274 273 271 272 271 265 254 245 243 247 253 255 253 248 245 241 239 237 232 222 216 216 220 222 222 222 224 228 234 241 246 249 252 253 252 251 250 249 249 249 250 251 252 253 254 256 257 258 259 260 261 262 263 264 265 265 266 266 267 267 266 266 266 265 266 267 268 268 268 267 266 263 262 261 262 265 267 268 270 271
272 269 267 266 266 267 268 271 272 271 270 271 271 266 255 243 237 238 243 245 243 236 231 230 232 230 223 217 215 217 219 219 219 220 220 222 225 227 230 233 240 247 252 253 253 252 251 251 252 253 254 254 255 256 256 257 258 259 260 261 262 262 263 263 264 264 264 265 265 266 266 266 266 266 266 265 264 263 262 262 263 263 264 265 265 266 267
272 270 266 264 263 263 264 266 269 271 270 268 267 269 267 259 246 235 229 231 234 234 230 228 227 226 223 220 218 218 219 220 221 222 222 221 220 221 222 222 225 231 238 243 246 249 251 251 249 248 247 247 247 249 250 252 254 255 256 257 257 258 258 259 259 258 258 258 258 259 259 258 257 256 256 257 257 257 259 262 265 266 266 265 265 264 265
Height
5700 5705 5709 5712 5715 5721 5727 5732 5738 5742 5745 5748 5753 5760 5766 5770 5773 5778 5787 5795 5798 5799 5803 5804 5806 5810 5813 5816 5819 5821 5824 5828 5830 5832 5834 5837 5840 5842 5845 5848 5851 5855 5858 5861 5863 5866 5868 5870 5872 5875 5877 5878 5879 5881 5882 5884 5886 5888 5890 5892 5894 5897 5899 5902 5903 5905 5906 5908 5909 5911 5913 5915 5917 5919 5921 5923 5925 5926 5928 5930 5932 5933 5934 5935 5936 5937 5938
5695 5701 5705 5707 5711 5717 5724 5730 5734 5736 5739 5745 5751 5757 5763 5767 5769 5776 5786 5794 5797 5799 5800 5802 5804 5806 5809 5812 5815 5817 5821 5824 5827 5829 5831 5834 5837 5839 5841 5844 5848 5851 5855 5858 5861 5863 5865 5867 5870 5872 5874 5876 5877 5879 5881 5882 5884 5886 5888 5890 5892 5894 5897 5899 5901 5902 5903 5905 5907 5909 5911 5913 5915 5917 5919 5921 5922 5924 5926 5928 5929 5931 5933 5934 5935 5936 5937
5689 5696 5700 5704 5707 5713 5721 5726 5728 5731 5736 5743 5748 5754 5760 5763 5766 5775 5785 5792 5796 5796 5797 5799 5800 5803 5806 5809 5812 5815 5818 5821 5824 5826 5829 5831 5834 5836 5838 5841 5844 5848 5851 5854 5857 5860 5862 5865 5868 5870 5873 5874 5875 5877 5878 5880 5882 5884 5886 5888 5890 5892 5895 5896 5897 5899 5901 5903 5905 5907 5909 5911 5913 5915 5917 5919 5921 5922 5924 5926 5927 5929 5931 5932 5933 5934 5935
5682 5691 5696 5700 5704 5710 5717 5720 5722 5727 5733 5739 5745 5750 5756 5759 5764 5774 5782 5787 5793 5794 5794 5796 5798 5800 5803 5806 5810 5813 5816 5819 5821 5824 5826 5828 5831 5834 5836 5838 5840 5844 5847 5851 5855 5857 5860 5862 5865 5868 5870 5872 5873 5874 5877 5878 5880 5882 5884 5886 5888 5890 5892 5893 5895 5897 5899 5901 5903 5905 5907 5909 5911 5913 5915 5917 5919 5920 5922 5924 5925 5927 5929 5930 5931 5932 5933
5677 5686 5690 5696 5702 5706 5711 5714 5718 5724 5729 5736 5742 5747 5752 5755 5761 5770 5777 5782 5789 5791 5791 5794 5796 5798 5801 5805 5808 5811 5814 5817 5820 5822 5824 5826 5829 5831 5834 5835 5837 5840 5844 5848 5852 5855 5857 5860 5864 5866 5868 5870 5872 5873 5875 5876 5878 5880 5882 5884 5886 5888 5889 5891 5893 5896 5897 5899 5902 5904 5906 5907 5909 5911 5913 5915 5917 5918 5920 5921 5923 5925 5927 5928 5929 5930 5931
5672 5680 5685 5692 5697 5700 5706 5711 5715 5721 5726 5732 5738 5742 5747 5752 5757 5766 5772 5778 5784 5788 5789 5792 5793 5796 5800 5803 5806 5809 5812 5815 5818 5820 5823 5824 5826 5828 5830 5832 5835 5837 5842 5846 5849 5851 5854 5858 5862 5864 5866 5868 5869 5870 5871 5873 5875 5877 5879 5882 5884 5885 5887 5889 5892 5894 5896 5898 5900 5902 5904 5906 5907 5910 5912 5913 5915 5916 5918 5920 5922 5923 5925 5926 5927 5928 5929
5667 5675 5680 5686 5691 5697 5703 5708 5711 5717 5722 5729 5735 5739 5744 5749 5755 5762 5768 5774 5781 5785 5786 5788 5791 5795 5798 5801 5804 5807 5810 5814 5816 5819 5821 5823 5824 5826 5827 5829 5832 5835 5839 5842 5845 5848 5852 5855 5858 5860 5863 5864 5865 5867 5869 5870 5873 5875 5877 5879 5881 5883 5885 5887 5889 5892 5894 5896 5898 5900 5902 5904 5906 5908 5910 5912 5913 5915 5916 5918 5920 5921 5922 5924 5925 5926 5927
5662 5669 5674 5681 5689 5696 5701 5704 5709 5714 5719 5725 5732 5737 5741 5746 5752 5759 5765 5771 5777 5781 5783 5786 5789 5793 5796 5799 5802 5805 5808 5811 5814 5816 5819 5821 5823 5824 5826 5828 5831 5834 5837 5839 5842 5846 5849 5852 5855 5858 5860 5862 5863 5865 5867 5868 5871 5873 5875 5877 5879 5880 5883 5885 5888 5890 5892 5895 5897 5898 5900 5902 5904 5907 5908 5910 5912 5913 5915 5916 5918 5919 5920 5922 5923 5923 5924
5656 5664 5671 5679 5687 5693 5698 5702 5706 5711 5716 5721 5728 5732 5737 5742 5748 5755 5761 5767 5773 5777 5780 5784 5787 5791 5794 5797 5799 5802 5805 5808 5811 5814 5817 5819 5821 5823 5824 5826 5829 5832 5834 5837 5840 5843 5846 5850 5853 5855 5857 5859 5861 5862 5864 5866 5869 5871 5873 5875 5877 5879 5882 5884 5886 5889 5891 5893 5895 5897 5899 5901 5903 5905 5907 5908 5910 5911 5913 5915 5916 5917 5918 5919 5920 5920 5921
5651 5661 5669 5675 5682 5688 5695 5700 5703 5708 5713 5718 5724 5729 5733 5738 5744 5751 5757 5763 5769 5774 5777 5781 5784 5788 5790 5793 5795 5799 5802 5805 5809 5812 5814 5817 5820 5822 5823 5825 5827 5829 5831 5834 5837 5840 5843 5846 5849 5851 5854 5857 5858 5860 5862 5864 5867 5869 5871 5874 5876 5879 5881 5883 5885 5887 5889 5891 5893 5895 5898 5900 5902 5903 5905 5907 5908 5910 5911 5913 5914 5915 5915 5916 5917 5918 5919
5647 5658 5665 5671 5678 5686 5693 5698 5701 5706 5710 5714 5720 5726 5729 5734 5741 5748 5754 5759 5764 5769 5773 5777 5781 5784 5786 5789 5792 5795 5799 5802 5805 5809 5812 5815 5818 5820 5821 5823 5825 5827 5829 5831 5834 5836 5839 5843 5845 5848 5852 5854 5856 5858 5860 5862 5864 5867 5870 5873 5875 5878 5879 5881 5883 5885 5887 5890 5892 5894 5896 5898 5900 5901 5903 5905 5906 5908 5909 5911 5911 5912 5913 5914 5915 5916 5917
5645 5654 5662 5668 5676 5684 5691 5695 5698 5702 5706 5711 5717 5722 5726 5732 5739 5745 5750 5756 5760 5765 5769 5773 5777 5780 5782 5785 5788 5792 5796 5799 5802 5805 5809 5812 5815 5817 5819 5821 5823 5824 5827 5829 5831 5834 5837 5840 5843 5846 5849 5851 5853 5855 5857 5860 5863 5866 5869 5871 5873 5875 5876 5878 5881 5883 5886 5888 5890 5892 5894 5896 5897 5899 5901 5903 5904 5906 5907 5908 5909 5910 5911 5912 5913 5913 5914
5642 5651 5659 5665 5672 5681 5687 5690 5693 5699 5705 5709 5714 5719 5724 5729 5735 5740 5746 5751 5755 5759 5764 5768 5772 5775 5778 5782 5786 5789 5793 5796 5799 5802 5806 5809 5812 5815 5817 5819 5821 5823 5824 5827 5829 5832 5835 5838 5841 5844 5846 5848 5850 5853 5856 5859 5862 5865 5867 5868 5870 5872 5875 5877 5880 5882 5884 5886 5888 5889 5891 5893 5895 5897 5899 5901 5902 5904 5905 5906 5907 5908 5909 5909 5910 5911 5911
5639 5647 5655 5661 5669 5677 5682 5686 5691 5698 5703 5705 5709 5716 5721 5726 5731 5735 5740 5745 5749 5754 5758 5762 5767 5772 5776 5780 5783 5786 5790 5793 5796 5799 5803 5806 5809 5812 5814 5817 5819 5821 5823 5825 5827 5830 5832 5835 5839 5841 5843 5846 5848 5851 5855 5858 5861 5863 5865 5867 5869 5871 5873 5875 5878 5880 5882 5884 5885 5887 5889 5891 5893 5895 5897 5898 5900 5901 5902 5904 5905 5906 5906 5907 5908 5908 5909
5635 5643 5651 5658 5666 5673 5678 5683 5689 5696 5698 5700 5704 5711 5717 5722 5727 5732 5735 5739 5743 5748 5753 5758 5763 5769 5773 5776 5779 5783 5786 5789 5793 5797 5800 5803 5807 5809 5812 5814 5816 5819 5821 5823 5826 5828 5831 5833 5836 5839 5841 5844 5847 5851 5854 5857 5859 5860 5862 5864 5866 5868 5870 5873 5876 5878 5880 5881 5883 5884 5886 5888 5890 5892 5894 5896 5897 5898 5900 5901 5902 5903 5904 5904 5905 5906 5906
5633 5641 5649 5657 5664 5670 5675 5681 5687 5692 5696 5699 5702 5706 5711 5717 5723 5726 5729 5733 5738 5743 5748 5754 5759 5764 5768 5771 5776 5779 5783 5786 5790 5793 5797 5801 5804 5807 5809 5812 5814 5817 5819 5821 5824 5826 5829 5831 5834 5836 5839 5843 5846 5849 5851 5853 5855 5856 5857 5859 5862 5865 5868 5870 5872 5874 5876 5878 5879 5881 5883 5885 5887 5889 5890 5892 5894 5895 5897 5898 5899 5900 5901 5902 5902 5903 5904
5632 5641 5649 5657 5663 5667 5673 5679 5684 5689 5694 5697 5699 5702 5707 5712 5717 5720 5723 5728 5733 5738 5744 5748 5753 5758 5762 5767 5771 5775 5779 5783 5786 5790 5794 5798 5801 5804 5807 5809 5812 5814 5817 5819 5822 5825 5827 5830 5832 5835 5837 5841 5844 5846 5848 5850 5851 5852 5853 5855 5859 5861 5863 5866 5868 5870 5872 5874 5876 5878 5880 5881 5883 5885 5886 5888 5890 5892 5893 5894 5896 5897 5898 5898 5899 5900 5901
5632 5640 5647 5653 5659 5664 5671 5676 5680 5686 5691 5693 5694 5698 5702 5706 5711 5715 5719 5724 5729 5734 5739 5744 5748 5753 5757 5762 5766 5771 5775 5779 5782 5787 5791 5795 5798 5802 5804 5807 5809 5812 5815 5817 5820 5823 5826 5828 5831 5833 5836 5838 5841 5843 5844 5847 5848 5849 5850 5853 5855 5857 5859 5862 5864 5866 5868 5870 5873 5874 5876 5878 5880 5881 5882 5884 5886 5887 5889 5890 5892 5893 5893 5894 5895 5897 5898
5632 5638 5643 5649 5655 5661 5668 5673 5677 5683 5688 5689 5690 5694 5698 5701 5705 5709 5715 5721 5725 5729 5734 5739 5743 5748 5753 5757 5761 5766 5770 5775 5778 5783 5787 5791 5795 5798 5801 5804 5807 5809 5812 5815 5817 5820 5823 5826 5828 5830 5833 5835 5837 5839 5841 5843 5845 5846 5848 5849 5851 5853 5856 5858 5860 5862 5864 5866 5869 5870 5872 5874 5876 5877 5879 5880 5882 5883 5884 5886 5887 5888 5889 5890 5891 5892 5894
5629 5635 5640 5646 5652 5658 5664 5670 5674 5679 5682 5684 5686 5690 5694 5697 5699 5704 5710 5717 5721 5725 5731 5735 5739 5744 5749 5753 5757 5761 5766 5770 5774 5778 5782 5787 5791 5795 5798 5800 5803 5806 5809 5812 5814 5817 5819 5822 5824 5827 5828 5831 5833 5835 5837 5839 5841 5842 5844 5845 5847 5850 5852 5854 5856 5858 5860 5862 5864 5866 5868 5870 5872 5873 5875 5876 5878 5879 5880 5881 5882 5883 5884 5886 5887 5888 5889
5628 5633 5639 5644 5649 5655 5661 5667 5670 5673 5677 5680 5683 5687 5690 5691 5693 5697 5704 5711 5715 5721 5727 5732 5736 5741 5745 5750 5754 5758 5761 5765 5769 5773 5778 5782 5786 5790 5793 5796 5799 5803 5806 5808 5811 5813 5816 5818 5821 5823 5825 5827 5829 5831 5833 5835 5837 5839 5840 5842 5844 5846 5848 5850 5852 5854 5856 5858 5860 5861 5863 5866 5868 5869 5871 5872 5873 5874 5876 5876 5877 5878 5880 5881 5882 5883 5883
5627 5632 5637 5641 5646 5652 5658 5663 5665 5667 5671 5675 5680 5684 5686 5688 5689 5693 5699 5704 5709 5714 5722 5727 5732 5736 5741 5745 5749 5753 5757 5761 5765 5769 5773 5777 5781 5785 5788 5792 5795 5799 5801 5804 5807 5809 5812 5814 5817 5819 5821 5823 5825 5827 5829 5831 5833 5835 5837 5838 5840 5842 5844 5846 5848 5850 5852 5854 5855 5857 5859 5861 5863 5865 5866 5868 5869 5870 5871 5872 5873 5874 5875 5876 5877 5877 5878
5627 5631 5635 5639 5645 5650 5654 5657 5660 5663 5667 5671 5675 5679 5683 5685 5687 5691 5696 5700 5704 5709 5716 5723 5727 5731 5736 5740 5744 5748 5752 5756 5760 5764 5768 5772 5776 5780 5784 5787 5791 5794 5797 5800 5802 5805 5808 5811 5813 5815 5817 5819 5821 5824 5826 5828 5830 5831 5833 5834 5836 5837 5839 5841 5844 5846 5848 5850 5852 5853 5855 5857 5859 5860 5862 5863 5864 5866 5867 5867 5868 5869 5870 5871 5872 5872 5873
5627 5631 5635 5640 5644 5647 5650 5654 5658 5660 5663 5666 5670 5676 5680 5682 5684 5687 5691 5696 5699 5703 5709 5717 5722 5726 5731 5735 5739 5743 5748 5751 5755 5759 5763 5767 5771 5775 5779 5783 5786 5790 5793 5796 5798 5801 5804 5806 5809 5811 5813 5815 5818 5820 5822 5824 5826 5828 5829 5830 5832 5833 5835 5837 5839 5841 5843 5845 5848 5850 5851 5853 5855 5856 5857 5859 5860 5861 5862 5863 5864 5865 5866 5867 5867 5868 5868
5629 5632 5636 5640 5643 5645 5648 5652 5654 5655 5657 5661 5667 5673 5677 5680 5682 5684 5687 5691 5695 5700 5705 5712 5717 5721 5725 5730 5734 5738 5743 5747 5751 5755 5759 5763 5767 5771 5775 5779 5782 5786 5789 5792 5795 5797 5800 5803 5805 5808 5810 5812 5814 5816 5818 5820 5822 5824 5825 5827 5828 5830 5831 5833 5835 5837 5839 5841 5843 5846 5847 5849 5851 5852 5854 5855 5856 5857 5858 5859 5860 5861 5862 5862 5863 5864 5864
5629 5632 5636 5639 5641 5642 5644 5647 5649 5651 5655 5659 5664 5669 5674 5677 5679 5683 5686 5689 5692 5698 5703 5708 5712 5716 5720 5724 5728 5732 5737 5741 5746 5750 5754 5758 5762 5766 5770 5774 5778 5781 5784 5787 5790 5793 5797 5800 5802 5804 5806 5808 5810 5812 5814 5816 5818 5820 5822 5824 5825 5826 5828 5829 5831 5833 5835 5837 5839 5841 5843 5845 5846 5848 5849 5850 5852 5853 5854 5855 5856 5857 5857 5858 5859 5860 5861
5629 5631 5634 5637 5638 5638 5639 5643 5646 5649 5652 5656 5659 5663 5669 5672 5675 5680 5686 5688 5689 5692 5698 5704 5709 5713 5717 5720 5723 5727 5731 5735 5740 5745 5749 5753 5758 5762 5765 5769 5773 5777 5780 5783 5786 5789 5793 5796 5798 5800 5802 5804 5806 5808 5810 5812 5814 5817 5819 5820 5822 5823 5824 5825 5827 5829 5831 5832 5834 5836 5838 5840 5841 5843 5845 5846 5847 5849 5850 5850 5851 5852 5853 5854 5855 5856 5857
5628 5630 5633 5635 5637 5638 5639 5641 5645 5647 5649 5652 5655 5658 5664 5669 5672 5675 5681 5686 5687 5688 5692 5698 5704 5709 5713 5716 5719 5723 5727 5731 5735 5739 5744 5748 5752 5756 5760 5764 5768 5771 5775 5778 5781 5785 5788 5791 5794 5796 5798 5799 5802 5804 5806 5808 5810 5812 5814 5816 5818 5820 5821 5822 5823 5824 5826 5828 5830 5831 5833 5835 5837 5838 5840 5841 5843 5844 5845 5846 5846 5847 5849 5850 5851 5852 5852
5628 5630 5632 5635 5637 5638 5639 5640 5642 5644 5646 5650 5653 5656 5659 5664 5668 5672 5676 5681 5685 5687 5690 5693 5698 5703 5707 5712 5715 5718 5722 5726 5730 5734 5739 5744 5748 5751 5755 5759 5763 5766 5770 5773 5777 5780 5783 5786 5789 5791 5793 5795 5797 5799 5801 5803 5806 5808 5810 5812 5814 5815 5817 5818 5819 5821 5822 5824 5825 5827 5829 5830 5832 5834 5835 5836 5838 5839 5840 5841 5842 5843 5844 5845 5846 5846 5846
5627 5630 5632 5634 5636 5638 5639 5640 5641 5642 5644 5648 5652 5654 5656 5659 5663 5668 5672 5676 5680 5684 5687 5689 5692 5696 5700 5704 5708 5711 5715 5720 5724 5729 5734 5738 5743 5746 5750 5754 5757 5761 5764 5768 5771 5775 5778 5782 5784 5787 5789 5791 5793 5795 5797 5799 5801 5803 5805 5807 5809 5811 5812 5814 5816 5817 5818 5820 5821 5823 5824 5826 5827 5829 5830 5832 5833 5834 5835 5836 5837 5838 5839 5840 5840 5841 5841
5626 5629 5631 5633 5635 5637 5638 5639 5640 5641 5642 5645 5649 5652 5653 5655 5658 5662 5667 5671 5674 5678 5681 5684 5688 5692 5695 5699 5702 5705 5708 5713 5718 5723 5728 5733 5737 5741 5744 5748 5752 5755 5759 5762 5766 5769 5773 5776 5779 5781 5784 5786 5788 5790 5792 5794 5796 5798 5800 5802 5804 5805 5807 5809 5811 5812 5814 5815 5817 5819 5820 5822 5823 5824 5826 5827 5828 5829 5830 5831 5832 5832 5833 5834 5834 5834 5834
5623 5626 5628 5630 5632 5634 5636 5638 5639 5640 5640 5642 5645 5648 5650 5652 5654 5657 5661 5666 5670 5673 5676 5679 5682 5686 5691 5696 5698 5701 5705 5708 5712 5716 5721 5727 5731 5735 5738 5742 5746 5750 5754 5757 5760 5764 5767 5770 5773 5776 5778 5781 5783 5785 5787 5789 5791 5793 5795 5796 5798 5800 5802 5804 5806 5807 5809 5811 5812 5814 5815 5817 5818 5820 5821 5822 5823 5824 5824 5824 5825 5826 5827 5827 5827 5827 5827
5620 5623 5625 5628 5630 5631 5633 5635 5637 5638 5638 5638 5641 5644 5647 5649 5651 5653 5656 5660 5665 5669 5673 5675 5677 5679 5684 5689 5693 5696 5700 5703 5707 5710 5714 5719 5723 5727 5731 5735 5740 5743 5747 5751 5754 5757 5761 5764 5766 5769 5772 5776 5778 5780 5782 5784 5786 5788 5789 5791 5793 5795 5797 5798 5800 5802 5804 5805 5807 5808 5810 5812 5813 5815 5816 5817 5817 5817 5817 5818 5818 5819 5820 5821 5821 5821 5822
5616 5619 5622 5625 5627 5629 5630 5631 5633 5635 5636 5635 5636 5640 5642 5645 5646 5648 5650 5654 5658 5662 5666 5669 5671 5673 5676 5681 5685 5690 5693 5696 5700 5704 5708 5712 5716 5720 5724 5728 5732 5736 5740 5744 5748 5751 5754 5757 5760 5763 5766 5769 5773 5775 5777 5779 5781 5782 5784 5786 5788 5790 5791 5793 5795 5796 5798 5799 5801 5802 5804 5806 5807 5808 5810 5811 5811 5810 5810 5812 5814 5815 5815 5815 5816 5817 5817
5613 5615 5617 5620 5623 5625 5627 5628 5629 5631 5632 5632 5632 5634 5637 5639 5642 5643 5645 5647 5649 5653 5657 5662 5665 5667 5669 5672 5677 5682 5685 5687 5691 5697 5701 5705 5709 5714 5717 5720 5723 5727 5732 5737 5741 5744 5747 5750 5753 5756 5759 5763 5766 5769 5772 5773 5775 5777 5779 5781 5782 5784 5786 5787 5789 5790 5792 5793 5795 5796 5798 5800 5801 5802 5804 5805 5805 5804 5804 5806 5808 5810 5810 5810 5810 5811 5810
5610 5612 5613 5615 5617 5619 5621 5622 5623 5624 5626 5627 5627 5628 5630 5632 5635 5637 5639 5640 5642 5646 5651 5655 5658 5660 5663 5666 5669 5673 5676 5679 5683 5689 5694 5698 5702 5706 5709 5712 5716 5720 5725 5729 5733 5736 5740 5744 5747 5750 5753 5756 5759 5763 5766 5768 5770 5772 5774 5776 5777 5778 5780 5781 5783 5784 5786 5787 5788 5790 5791 5793 5795 5796 5797 5798 5799 5799 5798 5799 5801 5803 5803 5802 5803 5803 5803
5608 5609 5610 5611 5612 5614 5615 5616 5617 5617 5618 5620 5621 5621 5622 5624 5627 5630 5633 5634 5637 5640 5645 5648 5651 5653 5656 5659 5662 5666 5669 5672 5676 5680 5685 5690 5695 5699 5702 5705 5710 5714 5718 5722 5726 5729 5733 5736 5739 5743 5746 5750 5753 5756 5759 5762 5764 5766 5768 5770 5771 5773 5774 5775 5776 5778 5780 5781 5782 5784 5785 5786 5788 5789 5791 5792 5793 5793 5793 5793 5794 5795 5796 5795 5795 5796 5796
5606 5607 5608 5608 5609 5610 5610 5611 5611 5611 5611 5612 5613 5614 5614 5615 5618 5621 5625 5628 5630 5633 5637 5641 5644 5647 5649 5652 5655 5659 5663 5666 5669 5672 5676 5681 5686 5691 5694 5698 5702 5706 5711 5715 5719 5722 5725 5728 5732 5735 5740 5743 5746 5749 5753 5755 5757 5759 5762 5764 5766 5767 5768 5768 5770 5772 5774 5775 5776 5778 5779 5780 5782 5783 5784 5785 5786 5787 5787 5787 5788 5788 5789 5789 5789 5789 5790
5606 5607 5607 5607 5608 5608 5608 5608 5607 5606 5605 5605 5605 5606 5607 5608 5609 5612 5616 5620 5623 5627 5630 5633 5636 5640 5643 5646 5649 5652 5655 5659 5663 5666 5669 5673 5677 5681 5685 5689 5694 5698 5703 5708 5711 5715 5718 5722 5725 5728 5733 5737 5740 5742 5746 5748 5750 5753 5755 5758 5760 5761 5761 5762 5764 5766 5768 5769 5771 5772 5773 5775 5776 5777 5778 5779 5779 5780 5780 5781 5781 5782 5782 5782 5782 5782 5782
5607 5607 5607 5607 5607 5607 5606 5605 5604 5602 5601 5600 5600 5600 5600 5601 5603 5605 5607 5611 5615 5619 5623 5625 5627 5630 5635 5640 5643 5646 5648 5652 5656 5659 5662 5665 5669 5673 5677 5682 5687 5691 5696 5701 5705 5708 5712 5715 5718 5722 5726 5730 5733 5735 5739 5741 5744 5746 5749 5751 5753 5755 5756 5757 5759 5760 5762 5764 5765 5767 5768 5769 5770 5771 5771 5771 5772 5773 5774 5774 5774 5774 5775 5775 5775 5775 5775
5605 5604 5604 5605 5605 5604 5602 5601 5600 5599 5598 5597 5596 5596 5596 5597 5598 5599 5601 5604 5607 5611 5615 5619 5621 5623 5626 5630 5636 5640 5642 5645 5648 5652 5655 5659 5662 5666 5670 5675 5680 5684 5688 5692 5697 5701 5704 5708 5711 5715 5719 5722 5725 5729 5732 5735 5737 5740 5743 5745 5747 5748 5750 5751 5753 5754 5756 5757 5759 5760 5762 5763 5764 5764 5764 5765 5765 5766 5766 5767 5768 5767 5767 5768 5768 5768 5768
5602 5601 5601 5601 5601 5600 5599 5598 5597 5596 5595 5594 5594 5594 5593 5594 5594 5595 5596 5598 5601 5604 5608 5611 5615 5617 5619 5621 5626 5630 5635 5638 5642 5645 5648 5652 5656 5660 5663 5667 5672 5677 5680 5684 5689 5693 5697 5701 5705 5709 5712 5715 5718 5722 5725 5728 5730 5733 5736 5738 5741 5742 5744 5746 5747 5748 5749 5751 5752 5753 5754 5756 5757 5758 5758 5758 5758 5759 5759 5759 5760 5761 5760 5760 5760 5760 5760
5600 5599 5598 5598 5597 5596 5595 5595 5594 5593 5592 5592 5591 5591 5590 5590 5591 5592 5592 5593 5595 5598 5601 5604 5608 5611 5613 5614 5617 5620 5624 5630 5634 5638 5641 5645 5650 5654 5657 5661 5665 5669 5673 5677 5681 5685 5689 5693 5698 5702 5705 5708 5712 5715 5718 5721 5723 5726 5728 5730 5733 5735 5737 5738 5739 5741 5742 5743 5744 5744 5745 5746 5747 5749 5750 5750 5751 5751 5751 5751 5751 5752 5752 5752 5752 5752 5752
5598 5597 5597 5596 5595 5593 5592 5592 5592 5591 5591 5590 5589 5588 5588 5587 5588 5589 5590 5590 5591 5592 5595 5598 5601 5603 5606 5608 5611 5613 5616 5620 5626 5630 5634 5638 5643 5647 5651 5654 5658 5662 5665 5670 5674 5677 5681 5685 5689 5693 5697 5700 5704 5707 5710 5713 5715 5718 5720 5722 5724 5726 5728 5729 5731 5732 5733 5734 5734 5735 5736 5736 5737 5738 5740 5741 5741 5741 5741 5742 5742 5742 5743 5743 5743 5743 5743
5596 5595 5595 5594 5593 5592 5591 5590 5589 5589 5589 5588 5588 5587 5586 5586 5586 5587 5588 5588 5588 5588 5589 5590 5593 5596 5599 5602 5605 5606 5608 5611 5615 5620 5625 5630 5635 5639 5643 5647 5651 5655 5658 5662 5666 5670 5674 5677 5681 5685 5688 5692 5695 5698 5702 5704 5707 5710 5712 5714 5716 5717 5719 5720 5722 5723 5724 5725 5726 5726 5727 5727 5727 5727 5729 5730 5730 5731 5731 5732 5732 5732 5733 5733 5734 5734 5734
5593 5593 5593 5592 5591 5591 5590 5589 5588 5587 5587 5586 5586 5586 5585 5584 5584 5585 5585 5585 5585 5585 5585 5586 5587 5590 5593 5596 5598 5600 5602 5604 5606 5610 5615 5620 5624 5629 5635 5640 5644 5647 5652 5655 5659 5663 5667 5670 5673 5677 5680 5683 5686 5690 5693 5695 5698 5701 5703 5706 5707 5709 5710 5712 5713 5714 5715 5716 5717 5718 5718 5719 5719 5719 5719 5719 5720 5720 5720 5721 5722 5723 5724 5724 5724 5725 5725
5591 5591 5591 5590 5589 5589 5588 5588 5587 5586 5585 5585 5585 5584 5584 5583 5583 5582 5583 5582 5582 5582 5583 5584 5585 5586 5588 5591 5593 5596 5598 5599 5600 5603 5607 5610 5613 5618 5625 5631 5636 5640 5644 5648 5652 5656 5659 5662 5665 5669 5672 5675 5678 5681 5683 5686 5689 5691 5693 5696 5698 5700 5702 5703 5705 5705 5706 5707 5707 5708 5709 5710 5711 5711 5711 5710 5710 5710 5709 5709 5710 5711 5712 5713 5713 5714 5714
5588 5588 5588 5588 5587 5587 5586 5586 5586 5585 5585 5584 5583 5583 5582 5582 5581 5581 5581 5581 5581 5581 5582 5583 5584 5585 5587 5590 5592 5594 5596 5597 5598 5599 5601 5603 5606 5610 5615 5620 5625 5631 5636 5640 5644 5648 5652 5654 5657 5661 5664 5666 5669 5671 5674 5676 5679 5682 5684 5686 5688 5690 5692 5694 5695 5696 5697 5698 5699 5699 5700 5701 5702 5703 5703 5703 5704 5704 5704 5703 5702 5702 5703 5703 5703 5704 5704
5585 5585 5585 5585 5585 5584 5583 5583 5583 5583 5583 5583 5582 5582 5581 5580 5580 5580 5580 5580 5580 5581 5581 5582 5583 5584 5586 5588 5591 5593 5593 5594 5595 5596 5597 5599 5601 5603 5606 5609 5614 5619 5624 5629 5634 5638 5642 5645 5649 5652 5655 5657 5660 5662 5665 5667 5670 5673 5675 5678 5680 5681 5683 5684 5685 5687 5688 5690 5691 5691 5692 5693 5693 5694 5695 5695 5696 5697 5698 5697 5697 5697 5696 5696 5696 5696 5696
5582 5582 5582 5582 5582 5581 5581 5580 5580 5580 5580 5580 5580 5580 5580 5579 5578 5578 5578 5578 5579 5580 5580 5581 5582 5584 5585 5587 5588 5590 5591 5592 5593 5594 5595 5596 5598 5599 5601 5603 5606 5609 5613 5618 5623 5628 5632 5636 5639 5642 5645 5648 5651 5654 5656 5659 5662 5664 5667 5669 5671 5673 5674 5676 5677 5677 5679 5680 5682 5683 5684 5685 5685 5685 5686 5686 5687 5688 5689 5689 5689 5689 5689 5689 5688 5688 5688
5578 5578 5579 5579 5579 5579 5578 5578 5577 5577 5578 5578 5578 5577 5577 5577 5577 5576 5576 5576 5577 5578 5579 5580 5581 5583 5584 5585 5586 5588 5589 5590 5591 5592 5593 5595 5597 5598 5600 5601 5603 5605 5607 5610 5614 5618 5622 5626 5629 5633 5636 5640 5643 5646 5648 5651 5654 5656 5658 5661 5663 5665 5666 5667 5669 5669 5671 5672 5674 5675 5676 5677 5677 5677 5678 5678 5679 5679 5680 5680 5681 5681 5681 5681 5680 5680 5679
5574 5574 5575 5575 5576 5576 5576 5575 5575 5574 5574 5575 5575 5575 5574 5574 5574 5574 5575 5575 5575 5576 5577 5578 5579 5580 5581 5582 5583 5585 5586 5587 5588 5589 5591 5592 5595 5596 5597 5599 5601 5603 5605 5607 5608 5611 5614 5617 5621 5624 5628 5631 5634 5637 5640 5643 5646 5647 5649 5652 5654 5656 5658 5659 5661 5662 5663 5665 5666 5667 5668 5669 5670 5671 5671 5671 5672 5672 5672 5672 5673 5673 5673 5673 5673 5673 5672